Year,Month,Day,Hour,Minute,Value (Times are PST for windgust in km/hr)
2014,10,25,00,00,4.80
2014,10,25,00,01,3.20
2014,10,25,00,02,3.20
2014,10,25,00,03,3.20
2014,10,25,00,04,1.60
2014,10,25,00,05,3.20
2014,10,25,00,06,3.20
2014,10,25,00,07,1.60
2014,10,25,00,08,1.60
2014,10,25,00,09,1.60
2014,10,25,00,10,3.20
2014,10,25,00,11,1.60
2014,10,25,00,12,1.60
2014,10,25,00,13,1.60
2014,10,25,00,14,1.60
2014,10,25,00,15,1.60
2014,10,25,00,16,3.20
2014,10,25,00,17,3.20
2014,10,25,00,18,1.60
2014,10,25,00,19,4.80
2014,10,25,00,20,3.20
2014,10,25,00,21,4.80
2014,10,25,00,22,4.80
2014,10,25,00,23,3.20
2014,10,25,00,24,3.20
2014,10,25,00,25,3.20
2014,10,25,00,26,3.20
2014,10,25,00,27,3.20
2014,10,25,00,28,3.20
2014,10,25,00,29,3.20
2014,10,25,00,30,4.80
2014,10,25,00,31,4.80
2014,10,25,00,32,1.60
2014,10,25,00,33,1.60
2014,10,25,00,35,1.60
2014,10,25,00,36,1.60
2014,10,25,00,37,1.60
2014,10,25,00,39,1.60
2014,10,25,00,40,1.60
2014,10,25,00,41,3.20
2014,10,25,00,42,1.60
2014,10,25,00,43,1.60
2014,10,25,00,45,1.60
2014,10,25,00,46,3.20
2014,10,25,00,47,3.20
2014,10,25,00,48,3.20
2014,10,25,00,49,3.20
2014,10,25,00,50,1.60
2014,10,25,00,51,1.60
2014,10,25,00,52,3.20
2014,10,25,00,53,3.20
2014,10,25,00,54,1.60
2014,10,25,00,55,3.20
2014,10,25,00,56,1.60
2014,10,25,00,57,1.60
2014,10,25,00,58,1.60
2014,10,25,00,59,1.60
2014,10,25,01,00,3.20
2014,10,25,01,01,3.20
2014,10,25,01,02,1.60
2014,10,25,01,03,3.20
2014,10,25,01,04,3.20
2014,10,25,01,05,1.60
2014,10,25,01,07,1.60
2014,10,25,01,08,1.60
2014,10,25,01,09,1.60
2014,10,25,01,10,3.20
2014,10,25,01,11,1.60
2014,10,25,01,12,1.60
2014,10,25,01,13,1.60
2014,10,25,01,15,1.60
2014,10,25,01,16,1.60
2014,10,25,01,17,1.60
2014,10,25,01,18,1.60
2014,10,25,01,19,3.20
2014,10,25,01,20,3.20
2014,10,25,01,21,3.20
2014,10,25,01,22,1.60
2014,10,25,01,24,1.60
2014,10,25,01,26,3.20
2014,10,25,01,27,3.20
2014,10,25,01,28,3.20
2014,10,25,01,29,1.60
2014,10,25,01,30,1.60
2014,10,25,01,31,1.60
2014,10,25,01,32,1.60
2014,10,25,01,33,1.60
2014,10,25,01,34,1.60
2014,10,25,01,36,1.60
2014,10,25,01,37,3.20
2014,10,25,01,38,1.60
2014,10,25,01,39,1.60
2014,10,25,01,41,1.60
2014,10,25,01,43,3.20
2014,10,25,01,44,4.80
2014,10,25,01,45,3.20
2014,10,25,01,46,1.60
2014,10,25,01,47,1.60
2014,10,25,01,48,1.60
2014,10,25,01,50,3.20
2014,10,25,01,51,3.20
2014,10,25,01,52,1.60
2014,10,25,01,53,1.60
2014,10,25,01,54,3.20
2014,10,25,01,55,3.20
2014,10,25,01,56,4.80
2014,10,25,01,57,6.40
2014,10,25,01,58,4.80
2014,10,25,01,59,6.40
2014,10,25,02,00,3.20
2014,10,25,02,01,3.20
2014,10,25,02,02,3.20
2014,10,25,02,03,4.80
2014,10,25,02,04,4.80
2014,10,25,02,05,3.20
2014,10,25,02,06,1.60
2014,10,25,02,07,3.20
2014,10,25,02,08,4.80
2014,10,25,02,09,4.80
2014,10,25,02,10,3.20
2014,10,25,02,11,1.60
2014,10,25,02,12,1.60
2014,10,25,02,13,1.60
2014,10,25,02,14,3.20
2014,10,25,02,15,3.20
2014,10,25,02,16,3.20
2014,10,25,02,17,1.60
2014,10,25,02,20,1.60
2014,10,25,02,21,1.60
2014,10,25,02,22,1.60
2014,10,25,02,23,1.60
2014,10,25,02,26,3.20
2014,10,25,02,27,3.20
2014,10,25,02,28,4.80
2014,10,25,02,29,3.20
2014,10,25,02,30,1.60
2014,10,25,02,31,1.60
2014,10,25,02,32,3.20
2014,10,25,02,33,4.80
2014,10,25,02,34,3.20
2014,10,25,02,35,4.80
2014,10,25,02,36,3.20
2014,10,25,02,37,1.60
2014,10,25,02,41,1.60
2014,10,25,02,42,1.60
2014,10,25,02,43,1.60
2014,10,25,02,44,3.20
2014,10,25,02,45,3.20
2014,10,25,02,46,6.40
2014,10,25,02,47,4.80
2014,10,25,02,48,3.20
2014,10,25,02,49,3.20
2014,10,25,02,50,3.20
2014,10,25,02,51,3.20
2014,10,25,02,52,1.60
2014,10,25,02,53,1.60
2014,10,25,02,54,1.60
2014,10,25,02,55,3.20
2014,10,25,02,56,6.40
2014,10,25,02,57,6.40
2014,10,25,02,58,6.40
2014,10,25,02,59,4.80
2014,10,25,03,00,4.80
2014,10,25,03,01,3.20
2014,10,25,03,02,3.20
2014,10,25,03,06,4.80
2014,10,25,03,07,6.40
2014,10,25,03,08,3.20
2014,10,25,03,09,1.60
2014,10,25,03,10,4.80
2014,10,25,03,11,3.20
2014,10,25,03,12,1.60
2014,10,25,03,14,3.20
2014,10,25,03,15,1.60
2014,10,25,03,19,1.60
2014,10,25,03,20,1.60
2014,10,25,03,21,1.60
2014,10,25,03,22,1.60
2014,10,25,03,23,1.60
2014,10,25,03,24,1.60
2014,10,25,03,25,4.80
2014,10,25,03,26,4.80
2014,10,25,03,27,4.80
2014,10,25,03,28,3.20
2014,10,25,03,29,6.40
2014,10,25,03,30,4.80
2014,10,25,03,31,3.20
2014,10,25,03,32,1.60
2014,10,25,03,33,3.20
2014,10,25,03,35,6.40
2014,10,25,03,36,4.80
2014,10,25,03,37,3.20
2014,10,25,03,38,4.80
2014,10,25,03,39,3.20
2014,10,25,03,40,8.10
2014,10,25,03,41,4.80
2014,10,25,03,42,8.10
2014,10,25,03,43,8.10
2014,10,25,03,44,1.60
2014,10,25,03,45,9.60
2014,10,25,03,46,8.10
2014,10,25,03,47,6.40
2014,10,25,03,48,8.10
2014,10,25,03,49,4.80
2014,10,25,03,50,8.10
2014,10,25,03,51,11.30
2014,10,25,03,52,9.60
2014,10,25,03,53,14.50
2014,10,25,03,54,11.30
2014,10,25,03,55,11.30
2014,10,25,03,56,6.40
2014,10,25,03,57,9.60
2014,10,25,03,58,8.10
2014,10,25,03,59,6.40
2014,10,25,04,00,6.40
2014,10,25,04,01,8.10
2014,10,25,04,02,8.10
2014,10,25,04,03,6.40
2014,10,25,04,04,4.80
2014,10,25,04,05,6.40
2014,10,25,04,06,8.10
2014,10,25,04,07,11.30
2014,10,25,04,08,6.40
2014,10,25,04,09,4.80
2014,10,25,04,10,8.10
2014,10,25,04,11,11.30
2014,10,25,04,12,9.60
2014,10,25,04,13,9.60
2014,10,25,04,14,9.60
2014,10,25,04,15,8.10
2014,10,25,04,16,4.80
2014,10,25,04,17,4.80
2014,10,25,04,18,6.40
2014,10,25,04,19,4.80
2014,10,25,04,20,8.10
2014,10,25,04,21,6.40
2014,10,25,04,22,6.40
2014,10,25,04,23,6.40
2014,10,25,04,24,4.80
2014,10,25,04,25,4.80
2014,10,25,04,26,4.80
2014,10,25,04,27,6.40
2014,10,25,04,28,8.10
2014,10,25,04,29,1.60
2014,10,25,04,30,3.20
2014,10,25,04,31,6.40
2014,10,25,04,32,8.10
2014,10,25,04,33,4.80
2014,10,25,04,34,8.10
2014,10,25,04,35,6.40
2014,10,25,04,36,6.40
2014,10,25,04,37,8.10
2014,10,25,04,38,8.10
2014,10,25,04,39,4.80
2014,10,25,04,40,4.80
2014,10,25,04,41,4.80
2014,10,25,04,42,4.80
2014,10,25,04,43,8.10
2014,10,25,04,44,6.40
2014,10,25,04,45,3.20
2014,10,25,04,46,1.60
2014,10,25,04,47,4.80
2014,10,25,04,48,3.20
2014,10,25,04,49,1.60
2014,10,25,04,50,4.80
2014,10,25,04,51,3.20
2014,10,25,04,52,1.60
2014,10,25,04,53,3.20
2014,10,25,04,54,1.60
2014,10,25,04,55,1.60
2014,10,25,04,56,3.20
2014,10,25,04,57,3.20
2014,10,25,04,58,1.60
2014,10,25,04,59,3.20
2014,10,25,05,00,4.80
2014,10,25,05,01,1.60
2014,10,25,05,02,3.20
2014,10,25,05,03,3.20
2014,10,25,05,04,6.40
2014,10,25,05,05,4.80
2014,10,25,05,06,3.20
2014,10,25,05,07,4.80
2014,10,25,05,08,3.20
2014,10,25,05,09,3.20
2014,10,25,05,10,3.20
2014,10,25,05,11,1.60
2014,10,25,05,12,3.20
2014,10,25,05,13,3.20
2014,10,25,05,14,3.20
2014,10,25,05,15,1.60
2014,10,25,05,16,1.60
2014,10,25,05,17,1.60
2014,10,25,05,18,4.80
2014,10,25,05,19,4.80
2014,10,25,05,20,3.20
2014,10,25,05,21,4.80
2014,10,25,05,22,3.20
2014,10,25,05,23,4.80
2014,10,25,05,24,6.40
2014,10,25,05,25,6.40
2014,10,25,05,26,3.20
2014,10,25,05,27,4.80
2014,10,25,05,28,1.60
2014,10,25,05,29,1.60
2014,10,25,05,33,1.60
2014,10,25,05,34,3.20
2014,10,25,05,36,1.60
2014,10,25,05,37,1.60
2014,10,25,05,38,4.80
2014,10,25,05,39,3.20
2014,10,25,05,40,3.20
2014,10,25,05,41,4.80
2014,10,25,05,42,4.80
2014,10,25,05,43,4.80
2014,10,25,05,44,4.80
2014,10,25,05,45,4.80
2014,10,25,05,46,4.80
2014,10,25,05,47,6.40
2014,10,25,05,48,4.80
2014,10,25,05,49,1.60
2014,10,25,05,50,1.60
2014,10,25,05,51,1.60
2014,10,25,05,52,3.20
2014,10,25,05,53,1.60
2014,10,25,05,54,4.80
2014,10,25,05,55,1.60
2014,10,25,05,56,3.20
2014,10,25,05,57,3.20
2014,10,25,05,58,1.60
2014,10,25,06,01,1.60
2014,10,25,06,02,3.20
2014,10,25,06,03,3.20
2014,10,25,06,04,3.20
2014,10,25,06,06,1.60
2014,10,25,06,09,1.60
2014,10,25,06,10,1.60
2014,10,25,06,11,1.60
2014,10,25,06,13,3.20
2014,10,25,06,14,1.60
2014,10,25,06,15,3.20
2014,10,25,06,16,3.20
2014,10,25,06,17,3.20
2014,10,25,06,18,3.20
2014,10,25,06,19,4.80
2014,10,25,06,20,3.20
2014,10,25,06,21,3.20
2014,10,25,06,22,4.80
2014,10,25,06,23,4.80
2014,10,25,06,24,3.20
2014,10,25,06,25,1.60
2014,10,25,06,26,1.60
2014,10,25,06,28,4.80
2014,10,25,06,29,3.20
2014,10,25,06,30,3.20
2014,10,25,06,31,4.80
2014,10,25,06,32,4.80
2014,10,25,06,33,4.80
2014,10,25,06,34,3.20
2014,10,25,06,35,1.60
2014,10,25,06,36,1.60
2014,10,25,06,37,1.60
2014,10,25,06,38,1.60
2014,10,25,06,40,1.60
2014,10,25,06,43,1.60
2014,10,25,06,47,1.60
2014,10,25,06,48,1.60
2014,10,25,06,49,3.20
2014,10,25,06,50,3.20
2014,10,25,06,51,4.80
2014,10,25,06,52,4.80
2014,10,25,06,53,4.80
2014,10,25,06,54,4.80
2014,10,25,06,55,3.20
2014,10,25,06,56,4.80
2014,10,25,06,57,3.20
2014,10,25,06,58,1.60
2014,10,25,06,59,3.20
2014,10,25,07,00,1.60
2014,10,25,07,02,1.60
2014,10,25,07,03,1.60
2014,10,25,07,05,1.60
2014,10,25,07,06,1.60
2014,10,25,07,07,1.60
2014,10,25,07,08,1.60
2014,10,25,07,12,1.60
2014,10,25,07,13,1.60
2014,10,25,07,14,3.20
2014,10,25,07,15,1.60
2014,10,25,07,18,1.60
2014,10,25,07,25,1.60
2014,10,25,07,26,1.60
2014,10,25,07,29,1.60
2014,10,25,07,30,1.60
2014,10,25,07,32,1.60
2014,10,25,07,34,1.60
2014,10,25,07,35,1.60
2014,10,25,07,36,1.60
2014,10,25,07,40,1.60
2014,10,25,07,43,1.60
2014,10,25,07,44,3.20
2014,10,25,07,45,1.60
2014,10,25,07,46,3.20
2014,10,25,07,47,1.60
2014,10,25,07,48,3.20
2014,10,25,07,49,3.20
2014,10,25,07,50,1.60
2014,10,25,07,51,3.20
2014,10,25,07,52,3.20
2014,10,25,07,53,1.60
2014,10,25,07,59,1.60
2014,10,25,08,00,1.60
2014,10,25,08,01,1.60
2014,10,25,08,02,1.60
2014,10,25,08,03,1.60
2014,10,25,08,05,1.60
2014,10,25,08,06,1.60
2014,10,25,08,07,1.60
2014,10,25,08,08,3.20
2014,10,25,08,09,3.20
2014,10,25,08,10,1.60
2014,10,25,08,13,1.60
2014,10,25,08,14,1.60
2014,10,25,08,20,1.60
2014,10,25,08,21,1.60
2014,10,25,08,23,1.60
2014,10,25,08,28,1.60
2014,10,25,08,30,1.60
2014,10,25,08,31,1.60
2014,10,25,08,34,1.60
2014,10,25,08,35,1.60
2014,10,25,08,45,1.60
2014,10,25,08,47,1.60
2014,10,25,08,48,1.60
2014,10,25,08,51,1.60
2014,10,25,08,53,3.20
2014,10,25,08,54,3.20
2014,10,25,08,55,3.20
2014,10,25,08,56,1.60
2014,10,25,08,57,1.60
2014,10,25,08,58,1.60
2014,10,25,09,04,1.60
2014,10,25,09,05,1.60
2014,10,25,09,09,1.60
2014,10,25,09,10,1.60
2014,10,25,09,11,1.60
2014,10,25,09,12,1.60
2014,10,25,09,13,1.60
2014,10,25,09,14,3.20
2014,10,25,09,15,4.80
2014,10,25,09,16,6.40
2014,10,25,09,17,3.20
2014,10,25,09,18,3.20
2014,10,25,09,19,6.40
2014,10,25,09,20,6.40
2014,10,25,09,21,4.80
2014,10,25,09,22,3.20
2014,10,25,09,23,3.20
2014,10,25,09,24,1.60
2014,10,25,09,25,4.80
2014,10,25,09,26,6.40
2014,10,25,09,27,8.10
2014,10,25,09,28,8.10
2014,10,25,09,29,8.10
2014,10,25,09,30,6.40
2014,10,25,09,31,6.40
2014,10,25,09,32,4.80
2014,10,25,09,33,3.20
2014,10,25,09,34,3.20
2014,10,25,09,35,4.80
2014,10,25,09,36,1.60
2014,10,25,09,37,1.60
2014,10,25,09,38,1.60
2014,10,25,09,39,1.60
2014,10,25,09,45,3.20
2014,10,25,09,46,3.20
2014,10,25,09,47,3.20
2014,10,25,09,48,3.20
2014,10,25,09,49,3.20
2014,10,25,09,50,3.20
2014,10,25,09,51,1.60
2014,10,25,09,54,1.60
2014,10,25,09,55,1.60
2014,10,25,09,56,1.60
2014,10,25,10,04,1.60
2014,10,25,10,05,1.60
2014,10,25,10,06,1.60
2014,10,25,10,08,1.60
2014,10,25,10,11,1.60
2014,10,25,10,21,1.60
2014,10,25,10,22,1.60
2014,10,25,10,23,1.60
2014,10,25,10,24,1.60
2014,10,25,10,25,1.60
2014,10,25,10,26,1.60
2014,10,25,10,27,1.60
2014,10,25,10,33,3.20
2014,10,25,10,34,3.20
2014,10,25,10,35,4.80
2014,10,25,10,36,3.20
2014,10,25,10,37,1.60
2014,10,25,10,38,3.20
2014,10,25,10,39,4.80
2014,10,25,10,40,1.60
2014,10,25,10,43,1.60
2014,10,25,10,44,1.60
2014,10,25,10,46,1.60
2014,10,25,10,48,4.80
2014,10,25,10,49,3.20
2014,10,25,10,50,3.20
2014,10,25,10,51,3.20
2014,10,25,10,52,1.60
2014,10,25,10,53,1.60
2014,10,25,10,59,1.60
2014,10,25,11,03,3.20
2014,10,25,11,04,1.60
2014,10,25,11,06,1.60
2014,10,25,11,09,1.60
2014,10,25,11,10,1.60
2014,10,25,11,11,1.60
2014,10,25,11,12,3.20
2014,10,25,11,13,1.60
2014,10,25,11,15,1.60
2014,10,25,11,16,1.60
2014,10,25,11,22,1.60
2014,10,25,11,24,3.20
2014,10,25,11,25,1.60
2014,10,25,11,26,3.20
2014,10,25,11,27,1.60
2014,10,25,11,28,1.60
2014,10,25,11,34,1.60
2014,10,25,11,35,4.80
2014,10,25,11,36,4.80
2014,10,25,11,37,3.20
2014,10,25,11,38,4.80
2014,10,25,11,39,3.20
2014,10,25,11,40,3.20
2014,10,25,11,41,3.20
2014,10,25,11,42,3.20
2014,10,25,11,43,3.20
2014,10,25,11,44,1.60
2014,10,25,11,45,1.60
2014,10,25,11,46,1.60
2014,10,25,11,47,4.80
2014,10,25,11,48,4.80
2014,10,25,11,49,3.20
2014,10,25,11,50,4.80
2014,10,25,11,51,3.20
2014,10,25,11,52,3.20
2014,10,25,11,53,3.20
2014,10,25,11,54,3.20
2014,10,25,11,55,4.80
2014,10,25,11,56,4.80
2014,10,25,11,57,4.80
2014,10,25,11,58,1.60
2014,10,25,11,59,1.60
2014,10,25,12,00,1.60
2014,10,25,12,01,3.20
2014,10,25,12,02,4.80
2014,10,25,12,03,4.80
2014,10,25,12,04,4.80
2014,10,25,12,05,3.20
2014,10,25,12,06,6.40
2014,10,25,12,07,4.80
2014,10,25,12,08,4.80
2014,10,25,12,09,4.80
2014,10,25,12,10,3.20
2014,10,25,12,16,1.60
2014,10,25,12,17,1.60
2014,10,25,12,20,1.60
2014,10,25,12,26,1.60
2014,10,25,12,27,1.60
2014,10,25,12,29,1.60
2014,10,25,12,32,1.60
2014,10,25,12,33,1.60
2014,10,25,12,37,1.60
2014,10,25,12,45,1.60
2014,10,25,12,49,1.60
2014,10,25,12,53,1.60
2014,10,25,12,57,4.80
2014,10,25,12,58,4.80
2014,10,25,12,59,4.80
2014,10,25,13,00,4.80
2014,10,25,13,01,1.60
2014,10,25,13,02,1.60
2014,10,25,13,03,4.80
2014,10,25,13,04,3.20
2014,10,25,13,05,1.60
2014,10,25,13,07,1.60
2014,10,25,13,08,1.60
2014,10,25,13,09,3.20
2014,10,25,13,10,1.60
2014,10,25,13,11,4.80
2014,10,25,13,12,3.20
2014,10,25,13,13,3.20
2014,10,25,13,14,3.20
2014,10,25,13,15,3.20
2014,10,25,13,16,3.20
2014,10,25,13,17,1.60
2014,10,25,13,19,1.60
2014,10,25,13,22,1.60
2014,10,25,13,23,1.60
2014,10,25,13,24,1.60
2014,10,25,13,28,1.60
2014,10,25,13,29,1.60
2014,10,25,13,31,1.60
2014,10,25,13,36,1.60
2014,10,25,13,41,1.60
2014,10,25,13,42,1.60
2014,10,25,13,43,1.60
2014,10,25,13,44,1.60
2014,10,25,13,53,1.60
2014,10,25,13,54,1.60
2014,10,25,13,55,1.60
2014,10,25,13,56,1.60
2014,10,25,13,57,4.80
2014,10,25,13,58,4.80
2014,10,25,13,59,3.20
2014,10,25,14,00,3.20
2014,10,25,14,02,1.60
2014,10,25,14,03,3.20
2014,10,25,14,04,3.20
2014,10,25,14,05,1.60
2014,10,25,14,06,1.60
2014,10,25,14,13,1.60
2014,10,25,14,14,1.60
2014,10,25,14,15,1.60
2014,10,25,14,16,1.60
2014,10,25,14,17,1.60
2014,10,25,14,18,1.60
2014,10,25,14,19,1.60
2014,10,25,14,20,3.20
2014,10,25,14,21,1.60
2014,10,25,14,22,4.80
2014,10,25,14,23,4.80
2014,10,25,14,24,3.20
2014,10,25,14,26,1.60
2014,10,25,14,27,3.20
2014,10,25,14,28,3.20
2014,10,25,14,29,1.60
2014,10,25,14,30,1.60
2014,10,25,14,31,3.20
2014,10,25,14,32,1.60
2014,10,25,14,34,1.60
2014,10,25,14,36,1.60
2014,10,25,14,37,3.20
2014,10,25,14,38,1.60
2014,10,25,14,39,1.60
2014,10,25,14,40,1.60
2014,10,25,14,41,1.60
2014,10,25,14,43,1.60
2014,10,25,14,44,3.20
2014,10,25,14,45,6.40
2014,10,25,14,46,1.60
2014,10,25,14,47,1.60
2014,10,25,14,48,4.80
2014,10,25,14,49,4.80
2014,10,25,14,50,4.80
2014,10,25,14,51,4.80
2014,10,25,14,52,3.20
2014,10,25,14,53,1.60
2014,10,25,14,54,1.60
2014,10,25,14,55,1.60
2014,10,25,14,56,1.60
2014,10,25,15,00,3.20
2014,10,25,15,01,4.80
2014,10,25,15,02,1.60
2014,10,25,15,03,1.60
2014,10,25,15,04,3.20
2014,10,25,15,05,1.60
2014,10,25,15,06,1.60
2014,10,25,15,07,1.60
2014,10,25,15,11,1.60
2014,10,25,15,13,1.60
2014,10,25,15,14,1.60
2014,10,25,15,15,1.60
2014,10,25,15,19,1.60
2014,10,25,15,20,3.20
2014,10,25,15,21,1.60
2014,10,25,15,23,1.60
2014,10,25,15,30,1.60
2014,10,25,15,32,3.20
2014,10,25,15,33,1.60
2014,10,25,15,34,3.20
2014,10,25,15,39,1.60
2014,10,25,15,41,1.60
2014,10,25,15,43,3.20
2014,10,25,15,44,3.20
2014,10,25,15,45,4.80
2014,10,25,15,46,3.20
2014,10,25,15,47,1.60
2014,10,25,15,48,1.60
2014,10,25,15,49,3.20
2014,10,25,15,50,3.20
2014,10,25,15,51,1.60
2014,10,25,15,52,3.20
2014,10,25,15,53,3.20
2014,10,25,15,54,3.20
2014,10,25,15,55,4.80
2014,10,25,15,56,4.80
2014,10,25,16,03,1.60
2014,10,25,16,04,3.20
2014,10,25,16,05,1.60
2014,10,25,16,06,1.60
2014,10,25,16,08,1.60
2014,10,25,16,09,3.20
2014,10,25,16,10,3.20
2014,10,25,16,11,1.60
2014,10,25,16,19,1.60
2014,10,25,16,31,1.60
2014,10,25,16,35,1.60
2014,10,25,16,36,1.60
2014,10,25,16,37,1.60
2014,10,25,16,38,1.60
2014,10,25,16,42,1.60
2014,10,25,16,43,3.20
2014,10,25,16,44,3.20
2014,10,25,16,45,3.20
2014,10,25,16,47,1.60
2014,10,25,16,48,3.20
2014,10,25,16,49,3.20
2014,10,25,16,54,1.60
2014,10,25,16,55,1.60
2014,10,25,16,56,1.60
2014,10,25,16,57,1.60
2014,10,25,16,58,3.20
2014,10,25,16,59,1.60
2014,10,25,17,00,1.60
2014,10,25,17,01,3.20
2014,10,25,17,02,1.60
2014,10,25,17,05,1.60
2014,10,25,17,06,1.60
2014,10,25,17,10,1.60
2014,10,25,17,12,1.60
2014,10,25,17,13,3.20
2014,10,25,17,14,3.20
2014,10,25,17,18,1.60
2014,10,25,17,21,1.60
2014,10,25,17,24,1.60
2014,10,25,17,25,1.60
2014,10,25,17,26,1.60
2014,10,25,17,28,1.60
2014,10,25,17,29,1.60
2014,10,25,17,30,1.60
2014,10,25,17,31,4.80
2014,10,25,17,34,1.60
2014,10,25,17,35,1.60
2014,10,25,17,45,1.60
2014,10,25,17,46,1.60
2014,10,25,17,47,1.60
2014,10,25,18,12,1.60
2014,10,25,18,19,1.60
2014,10,25,18,20,1.60
2014,10,25,18,21,1.60
2014,10,25,18,31,1.60
2014,10,25,18,32,1.60
2014,10,25,18,38,1.60
2014,10,25,18,50,1.60
2014,10,25,19,18,1.60
2014,10,25,19,21,1.60
2014,10,25,19,30,3.20
2014,10,25,19,31,4.80
2014,10,25,19,32,4.80
2014,10,25,19,33,6.40
2014,10,25,19,34,6.40
2014,10,25,19,35,6.40
2014,10,25,19,36,6.40
2014,10,25,19,37,3.20
2014,10,25,19,39,3.20
2014,10,25,19,40,1.60
2014,10,25,19,42,1.60
2014,10,25,19,43,3.20
2014,10,25,19,44,3.20
2014,10,25,19,45,3.20
2014,10,25,19,46,3.20
2014,10,25,19,47,1.60
2014,10,25,19,49,4.80
2014,10,25,19,50,4.80
2014,10,25,19,51,4.80
2014,10,25,19,52,8.10
2014,10,25,19,53,3.20
2014,10,25,19,54,3.20
2014,10,25,19,55,3.20
2014,10,25,19,56,1.60
2014,10,25,19,57,3.20
2014,10,25,19,58,1.60
2014,10,25,19,59,1.60
2014,10,25,20,00,1.60
2014,10,25,20,01,1.60
2014,10,25,20,02,1.60
2014,10,25,20,03,1.60
2014,10,25,20,11,1.60
2014,10,25,20,13,3.20
2014,10,25,20,14,3.20
2014,10,25,20,15,4.80
2014,10,25,20,16,6.40
2014,10,25,20,17,3.20
2014,10,25,20,18,3.20
2014,10,25,20,19,4.80
2014,10,25,20,20,6.40
2014,10,25,20,21,6.40
2014,10,25,20,22,4.80
2014,10,25,20,23,4.80
2014,10,25,20,24,4.80
2014,10,25,20,25,1.60
2014,10,25,20,26,3.20
2014,10,25,20,27,3.20
2014,10,25,20,28,3.20
2014,10,25,20,29,4.80
2014,10,25,20,30,3.20
2014,10,25,20,34,1.60
2014,10,25,20,35,1.60
2014,10,25,20,36,1.60
2014,10,25,20,37,1.60
2014,10,25,20,38,4.80
2014,10,25,20,39,4.80
2014,10,25,20,40,3.20
2014,10,25,20,41,3.20
2014,10,25,20,42,3.20
2014,10,25,20,43,1.60
2014,10,25,20,44,1.60
2014,10,25,20,49,1.60
2014,10,25,20,50,1.60
2014,10,25,20,51,6.40
2014,10,25,20,52,4.80
2014,10,25,20,53,3.20
2014,10,25,20,54,3.20
2014,10,25,20,55,8.10
2014,10,25,20,56,3.20
2014,10,25,20,57,6.40
2014,10,25,20,58,17.70
2014,10,25,20,59,6.40
2014,10,25,21,00,22.50
2014,10,25,21,01,24.20
2014,10,25,21,02,9.60
2014,10,25,21,03,20.90
2014,10,25,21,04,16.10
2014,10,25,21,05,19.30
2014,10,25,21,06,16.10
2014,10,25,21,07,22.50
2014,10,25,21,08,16.10
2014,10,25,21,09,20.90
2014,10,25,21,10,9.60
2014,10,25,21,11,25.70
2014,10,25,21,12,25.70
2014,10,25,21,13,25.70
2014,10,25,21,14,17.70
2014,10,25,21,15,12.90
2014,10,25,21,16,9.60
2014,10,25,21,17,9.60
2014,10,25,21,18,9.60
2014,10,25,21,19,25.70
2014,10,25,21,20,17.70
2014,10,25,21,21,29.00
2014,10,25,21,22,27.40
2014,10,25,21,23,25.70
2014,10,25,21,24,16.10
2014,10,25,21,25,16.10
2014,10,25,21,26,41.80
2014,10,25,21,27,27.40
2014,10,25,21,28,25.70
2014,10,25,21,29,24.20
2014,10,25,21,30,24.20
2014,10,25,21,31,29.00
2014,10,25,21,32,16.10
2014,10,25,21,33,16.10
2014,10,25,21,34,35.40
2014,10,25,21,35,41.80
2014,10,25,21,36,24.20
2014,10,25,21,37,22.50
2014,10,25,21,38,20.90
2014,10,25,21,39,19.30
2014,10,25,21,40,25.70
2014,10,25,21,41,30.60
2014,10,25,21,42,19.30
2014,10,25,21,43,14.50
2014,10,25,21,44,24.20
2014,10,25,21,45,20.90
2014,10,25,21,46,25.70
2014,10,25,21,47,29.00
2014,10,25,21,48,37.00
2014,10,25,21,49,20.90
2014,10,25,21,50,20.90
2014,10,25,21,51,14.50
2014,10,25,21,52,22.50
2014,10,25,21,53,16.10
2014,10,25,21,54,19.30
2014,10,25,21,55,37.00
2014,10,25,21,56,37.00
2014,10,25,21,57,32.20
2014,10,25,21,58,35.40
2014,10,25,21,59,29.00
2014,10,25,22,00,27.40
2014,10,25,22,01,27.40
2014,10,25,22,02,16.10
2014,10,25,22,03,19.30
2014,10,25,22,04,22.50
2014,10,25,22,05,16.10
2014,10,25,22,06,11.30
2014,10,25,22,07,9.60
2014,10,25,22,08,6.40
2014,10,25,22,09,20.90
2014,10,25,22,10,8.10
2014,10,25,22,11,8.10
2014,10,25,22,12,11.30
2014,10,25,22,13,17.70
2014,10,25,22,14,17.70
2014,10,25,22,15,20.90
2014,10,25,22,16,20.90
2014,10,25,22,17,9.60
2014,10,25,22,18,19.30
2014,10,25,22,19,19.30
2014,10,25,22,20,20.90
2014,10,25,22,21,25.70
2014,10,25,22,22,16.10
2014,10,25,22,23,29.00
2014,10,25,22,24,33.80
2014,10,25,22,25,16.10
2014,10,25,22,26,9.60
2014,10,25,22,27,14.50
2014,10,25,22,28,9.60
2014,10,25,22,29,9.60
2014,10,25,22,30,6.40
2014,10,25,22,31,8.10
2014,10,25,22,32,6.40
2014,10,25,22,33,9.60
2014,10,25,22,34,19.30
2014,10,25,22,35,19.30
2014,10,25,22,36,27.40
2014,10,25,22,37,19.30
2014,10,25,22,38,19.30
2014,10,25,22,39,16.10
2014,10,25,22,40,11.30
2014,10,25,22,41,16.10
2014,10,25,22,42,14.50
2014,10,25,22,43,24.20
2014,10,25,22,44,12.90
2014,10,25,22,45,17.70
2014,10,25,22,46,16.10
2014,10,25,22,47,4.80
2014,10,25,22,48,14.50
2014,10,25,22,49,14.50
2014,10,25,22,50,6.40
2014,10,25,22,51,14.50
2014,10,25,22,52,19.30
2014,10,25,22,53,16.10
2014,10,25,22,54,14.50
2014,10,25,22,55,27.40
2014,10,25,22,56,14.50
2014,10,25,22,57,16.10
2014,10,25,22,58,25.70
2014,10,25,22,59,29.00
2014,10,25,23,00,37.00
2014,10,25,23,01,14.50
2014,10,25,23,02,14.50
2014,10,25,23,03,38.60
2014,10,25,23,04,29.00
2014,10,25,23,05,17.70
2014,10,25,23,06,9.60
2014,10,25,23,07,22.50
2014,10,25,23,08,4.80
2014,10,25,23,09,11.30
2014,10,25,23,10,17.70
2014,10,25,23,11,20.90
2014,10,25,23,12,19.30
2014,10,25,23,13,24.20
2014,10,25,23,14,27.40
2014,10,25,23,15,14.50
2014,10,25,23,16,33.80
2014,10,25,23,17,27.40
2014,10,25,23,18,24.20
2014,10,25,23,19,32.20
2014,10,25,23,20,33.80
2014,10,25,23,21,30.60
2014,10,25,23,22,22.50
2014,10,25,23,23,25.70
2014,10,25,23,24,40.20
2014,10,25,23,25,24.20
2014,10,25,23,26,24.20
2014,10,25,23,27,51.50
2014,10,25,23,28,40.20
2014,10,25,23,29,14.50
2014,10,25,23,30,24.20
2014,10,25,23,31,20.90
2014,10,25,23,32,16.10
2014,10,25,23,33,20.90
2014,10,25,23,34,30.60
2014,10,25,23,35,24.20
2014,10,25,23,36,29.00
2014,10,25,23,37,24.20
2014,10,25,23,38,24.20
2014,10,25,23,39,19.30
2014,10,25,23,40,24.20
2014,10,25,23,41,22.50
2014,10,25,23,42,30.60
2014,10,25,23,43,35.40
2014,10,25,23,44,16.10
2014,10,25,23,45,16.10
2014,10,25,23,46,12.90
2014,10,25,23,47,8.10
2014,10,25,23,48,20.90
2014,10,25,23,49,17.70
2014,10,25,23,50,32.20
2014,10,25,23,51,25.70
2014,10,25,23,52,19.30
2014,10,25,23,53,9.60
2014,10,25,23,54,17.70
2014,10,25,23,55,24.20
2014,10,25,23,56,16.10
2014,10,25,23,57,9.60
2014,10,25,23,58,4.80
2014,10,25,23,59,1.60
